Location: Ripley
(48.3812°N, 115.4473°W)
Time: 03:45:02
(UTC+00:00)

EO-88 - Visible Passes

Search period start: 28 June 2022 00:00
Search period end: 08 July 2022 00:00
Orbit: 458 x 464 km, 97.3° (Epoch: 27 June)

Date Brightness Start Highest point End Pass type
(mag) Time Alt. Az. Time Alt. Az. Time Alt. Az.
28 Jun ? 04:45:28 10° SSE 04:48:53 57° ENE 04:52:19 10° N visible
28 Jun ? 06:21:09 10° WSW 06:22:13 11° W 06:23:18 10° WNW visible
29 Jun ? 05:47:28 10° SSW 05:50:22 24° W 05:53:18 10° NW visible
30 Jun ? 05:15:32 12° S 05:18:39 59° W 05:22:06 10° NNW visible
01 Jul ? 04:43:39 10° SSE 04:47:02 54° ENE 04:50:27 10° N visible
01 Jul ? 06:19:04 10° WSW 06:20:21 12° W 06:21:38 10° WNW visible
02 Jul ? 05:45:31 10° SSW 05:48:26 26° W 05:51:24 10° NW visible
03 Jul ? 05:13:33 12° S 05:16:39 63° W 05:20:06 10° NNW visible
04 Jul ? 04:41:36 10° SSE 04:44:57 50° ENE 04:48:21 10° N visible
04 Jul ? 06:16:45 10° WSW 06:18:14 12° W 06:19:45 10° WNW visible
05 Jul ? 05:43:24 11° SSW 05:46:16 27° W 05:49:18 10° NW visible
06 Jul ? 05:11:21 13° S 05:14:24 67° WSW 05:17:53 10° NNW visible
07 Jul ? 04:39:20 10° SSE 04:42:40 47° ENE 04:46:02 10° N visible
07 Jul ? 06:14:14 10° WSW 06:15:54 13° W 06:17:36 10° WNW visible
